GAOFEN 12-1

Last updated on Tue Nov 21 2023 00:02:25 GMT+0000 (Coordinated Universal Time)

1 44819U 19082A 23324.55152334 .00000491 00000+0 70126-4 0 9991 2 44819 97.8344 338.5570 0001286 86.0786 274.0573 14.80917908215043

Satellite not in orbit

GAOFEN 12-1